This is the latest recevied weather packets stored in our database for station/object CX5ACA-13. If no packets are shown the sender has not sent any weather packets the latest 10 day(s).
| Time | Temp. | Humidity | Pressure | Rain* | Wind** | Luminosity | Snow |
|---|---|---|---|---|---|---|---|
| 1777651239 | 21.11° C | 70% | 1011 hPa | 0 mm | - | 260 W/m² | - |
| 1777650935 | 21.11° C | 71% | 1011.3 hPa | 0 mm | - | 236 W/m² | - |
| 1777650633 | 20.56° C | 72% | 1011.4 hPa | 0 mm | - | 244 W/m² | - |
| 1777650330 | 20.56° C | 72% | 1011.5 hPa | 0 mm | - | 197 W/m² | - |
| 1777650026 | 20.56° C | 73% | 1011.9 hPa | 0 mm | - | 197 W/m² | - |
| 1777649724 | 20.56° C | 73% | 1011.8 hPa | 0 mm | - | 156 W/m² | - |
| 1777649420 | 20.56° C | 73% | 1011.9 hPa | 0 mm | - | 176 W/m² | - |
| 1777649117 | 20.56° C | 72% | 1012 hPa | 0 mm | - | 564 W/m² | - |
| 1777648815 | 20.56° C | 73% | 1012 hPa | 0 mm | - | 219 W/m² | - |
| 1777648512 | 20° C | 73% | 1012 hPa | 0 mm | - | 250 W/m² | - |
| 1777648209 | 20° C | 74% | 1012.2 hPa | 0 mm | - | 175 W/m² | - |
| 1777647903 | 20° C | 74% | 1012.3 hPa | 0 mm | - | 152 W/m² | - |
| 1777647600 | 19.44° C | 74% | 1012.2 hPa | 0 mm | - | 113 W/m² | - |
| 1777647296 | 19.44° C | 74% | 1012.2 hPa | 0 mm | - | 111 W/m² | - |
| 1777646995 | 19.44° C | 74% | 1012.3 hPa | 0 mm | - | 103 W/m² | - |
| 1777646690 | 20° C | 73% | 1012.4 hPa | 0 mm | - | 115 W/m² | - |
| 1777646386 | 20° C | 73% | 1012.3 hPa | 0 mm | - | 171 W/m² | - |
| 1777646083 | 20° C | 73% | 1012.4 hPa | 0 mm | - | 295 W/m² | - |
| 1777645779 | 19.44° C | 74% | 1012.4 hPa | 0 mm | - | 264 W/m² | - |
| 1777645477 | 18.89° C | 75% | 1012.4 hPa | 0 mm | - | 250 W/m² | - |
| 1777645172 | 18.89° C | 75% | 1012.5 hPa | 0 mm | - | 186 W/m² | - |
| 1777644869 | 18.89° C | 76% | 1012.4 hPa | 0 mm | - | 155 W/m² | - |
| 1777644567 | 18.33° C | 77% | 1012.5 hPa | 0 mm | - | 143 W/m² | - |
| 1777644262 | 18.33° C | 77% | 1012.4 hPa | 0 mm | - | 102 W/m² | - |
| 1777643959 | 18.33° C | 77% | 1012.5 hPa | 0 mm | - | 102 W/m² | - |
* Rain latest hour (hover to see other rain measurements)
** Current wind speed in m/s (hover to see current wind gust speed)